Location: Iesi
(43.5167°N, 13.2333°E)
Time: 03:04:59
(UTC+00:00)

Meteor 1-20 Rocket - Pass Details

Date: 08 August 2020
Orbit: 818 x 893 km, 81.2° (Epoch: 25 September)

Event Time Altitude Azimuth Distance (km) Brightness Sun altitude
Exits shadow 20:23:08 28° 169° (SSE) 1,588 5.2 -19.1°
Maximum altitude 20:26:11 65° 96° (E) 974 4.3 -19.5°
Drops below altitude 10° 20:31:59 10° 16° (NNE) 2,571 7.1 -20.2°
Sets 20:34:28 0° 14° (NNE) 3,516 7.9 -20.5°
